STARLINK-32434

Satellite information

Favourite Embed

Satellite Type and Status

PAYLOADIN ORBIT

Key statistics

Satellite STARLINK-32434 at a glance.

Uptime

398

Days in orbit

Revolutions

≈ 15.3

Per day

Orbit

LEO

Low Earth Orbit

Inclination

43.0

Latest

Satellite identification and parameters

Extended collection of information and parameters for STARLINK-32434.

Object identification

Identified? True

Debris? False

Object name: STARLINK-32434

International designator: 2024-207B

Object number (NORAD): 61913

Object ID (CCSDS): 61913

Country: UNITED STATES OF AMERICA (US)

Current information (Y/N): Y

RCS size: LARGE

Orbital parameters

Period: 94.267 minutes

Inclination: 43.0016 deg

SMA: 6861.186 km

Apoapsis: 486.716 km

Periapsis: 479.387 km

RAAN: 55.9505 deg

Eccentricy: 0.00053408

Argument of periapsis: 292.1454 deg

Mean anomaly: 67.8831 deg

Mean motion: 15.27579904 rev/day

Mean motion (dot): 0.00040656 rev/day2

B* drag term: 0.0014783449 1/REarth

Two-line elements (TLE)

Creation date: Dec. 12, 2025, 10:14 a.m.

Reference frame: TEME

Reference center: EARTH

Epoch: Dec. 12, 2025, 5:40 a.m. UTC

TLE line 0: 0 STARLINK-32434

TLE line 1: 1 61913U 24207B 25346.23623256 .00040656 00000-0 14783-2 0 9990

TLE line 2: 2 61913 43.0016 55.9505 0005341 292.1454 67.8831 15.27579904 61341

Live tracking on map

Real-time ground track for satellite STARLINK-32434.

In-orbit conjunctions

There are no conjunctions computed for STARLINK-32434, at the moment. Check back to stay up to date, as we update our databases every day.

Go to all conjunctions

Associated space launch

A batch of 24 satellites for the Starlink mega-constellation - SpaceX's project for space-based Internet communication system.

STARLINK-32434 was lifted into orbit during the mission ‘Falcon 9 Block 5 | Starlink Group 6-69’, on board a Falcon 9 space rocket.

The launch took place on Nov. 11, 2024, 9:28 p.m. from Space Launch Complex 40.

For more information about the launch, click the button.

Launch to space Falcon 9 Block 5 | Starlink Group 6-69
Falcon 9 Block 5 | Starlink Group 6-69

Agency: SpaceX

Status: Launch Successful

Launch date: Nov. 11, 2024, 9:28 p.m. UTC

Rocket: Falcon 9

Launch pad: Space Launch Complex 40

Location: Cape Canaveral SFS, FL, USA

...

Latest news about this satellite

News about space launch
Launch Roundup: Falcon 9 launches customer payloads, China fly resupply mission to Tiangong

While SpaceX is preparing to fly Starship on its sixth integrated test flight this week, the company flew one satellite and plans to fly two more to geostationary transfer orbit this week. Koreasat 6A has flown while Optus-X and GSAT-20 are also scheduled...

News about space launch
SpaceX sends 24 more Starlink satellites into orbit

SpaceX sent 24 more Starlink high-speed internet satellites into orbit on Monday, launching a Falcon 9 rocket from Space Launch Complex 40...

News about space launch
SpaceX completes double launch day with Starlink 6-69 launch

The mission carried into orbit 24 V2 Mini Starlink satellites, which appears to be the maximum that can be flown on a single Falcon 9 launch. Liftoff from pad 40 at Cape Canaveral Space Force Station happened on Monday, Nov. 11 at 4:28 p.m. EST (2128 UTC)...


Newsletter sign-up

Weekly statistics, charts and insights to help you stay on top of the space industry.